• Processing (Info)

  • MPEC 2023-J66 : 2023 JE

    The following Minor Planet Electronic Circular may be linked-to from your own Web pages, but must not otherwise be redistributed electronically.

    A form allowing access to any MPEC is at the bottom of this page.


    Read MPEC 2023-J65 Read MPEC 2023-J67


    M.P.E.C. 2023-J66                                   Issued 2023 May 8, 23:45 UT
    
         The Minor Planet Electronic Circulars contain information on unusual
             minor planets, routine data on comets and natural satellites,
             and occasional editorial announcements.  They are published
        on behalf of Division F of the International Astronomical Union by the
              Minor Planet Center, Smithsonian Astrophysical Observatory,
                              Cambridge, MA 02138, U.S.A.
    			  
                 Prepared using the Tamkin Foundation Computer Network
    
                                  MPC@CFA.HARVARD.EDU
                URL https://www.minorplanetcenter.net/    ISSN 1523-6714
    
                                     2023 JE                                 
    
    
    Observations:
         K23J00E*1C2023 05 07.31496916 00 11.840+50 13 22.01         19.10GVEJ066G96
         K23J00E 1C2023 05 07.32016816 00 07.916+50 11 32.75         19.34GVEJ066G96
         K23J00E 1C2023 05 07.32537316 00 03.928+50 09 41.58         19.42GVEJ066G96
         K23J00E 1C2023 05 07.33057316 00 00.014+50 07 52.32         19.48GVEJ066G96
         K23J00E  C2023 05 07.37729115 59 23.801+49 51 12.00         19.2 GVEJ066H01
         K23J00E  C2023 05 07.38070215 59 21.249+49 49 58.64         19.5 GVEJ066H01
         K23J00E  C2023 05 07.39589315 59 09.952+49 44 31.62         19.2 GVEJ066H01
         K23J00E  C2023 05 07.40259615 59 05.016+49 42 07.02         19.2 GVEJ066H01
         K23J00E mC2023 05 07.42952415 58 46.121+49 32 31.38         19.08GVEJ066I52
         K23J00E mC2023 05 07.42971815 58 45.919+49 32 27.89         19.14GVEJ066I52
         K23J00E mC2023 05 07.42991915 58 45.800+49 32 23.14         19.12GVEJ066I52
         K23J00E mC2023 05 07.43011315 58 45.689+49 32 19.43         19.13GVEJ066I52
         K23J00E hC2023 05 07.82272515 55 05.29 +47 10 13.3          19.4 GVEJ066L01
         K23J00E hC2023 05 07.82420715 55 04.39 +47 09 42.5          19.3 GVEJ066L01
         K23J00E hC2023 05 07.82568915 55 03.39 +47 09 11.1          19.5 GVEJ066L01
         K23J00E hC2023 05 07.82717015 55 02.45 +47 08 39.9          19.3 GVEJ066L01
         K23J00E hC2023 05 07.82865015 55 01.51 +47 08 08.8          19.4 GVEJ066L01
         K23J00E KC2023 05 07.85273915 54 48.03 +46 59 20.2          19.2 GXEJ066I93
         K23J00E KC2023 05 07.86254415 54 41.97 +46 55 53.5          19.4 GXEJ066I93
         K23J00E KC2023 05 07.87226915 54 35.84 +46 52 28.0          19.3 GXEJ066I93
         K23J00E KC2023 05 07.88262315 54 28.118+46 48 29.84         19.1 GVEJ066J95
         K23J00E KC2023 05 07.88456815 54 26.914+46 47 48.34         19.4 GVEJ066J95
         K23J00E KC2023 05 07.88654815 54 25.711+46 47 06.04         19.3 GVEJ066J95
         K23J00E KC2023 05 07.89012115 54 24.86 +46 46 11.9          19.0 GXEJ066958
         K23J00E KC2023 05 07.89087115 54 22.939+46 45 34.52         19.3 GVEJ066J95
         K23J00E KC2023 05 07.89492915 54 21.91 +46 44 28.6          19.1 GXEJ066958
         K23J00E KC2023 05 07.89972515 54 18.78 +46 42 48.2          18.7 GXEJ066958
         K23J00E KC2023 05 07.91888215 54 05.170+46 35 38.76         18.9 GVEJ066Z80
         K23J00E KC2023 05 07.93864615 53 52.694+46 28 36.73         19.1 GVEJ066Z80
         K23J00E KC2023 05 08.00524715 53 09.04 +46 05 09.3          18.9 GXEJ066C95
         K23J00E KC2023 05 08.04020015 52 46.33 +45 52 27.1          19.3 GXEJ066C95
         K23J00E KC2023 05 08.07463115 52 24.16 +45 39 52.4          18.1 GXEJ066C95
         K23J00E 1C2023 05 08.33967015 50 04.312+44 03 54.61         19.12GVEJ066G96
         K23J00E 1C2023 05 08.34544615 50 00.676+44 01 48.14         19.12GVEJ066G96
         K23J00E 1C2023 05 08.35113115 49 57.126+43 59 43.40         19.37GVEJ066G96
         K23J00E 1C2023 05 08.35651115 49 53.742+43 57 44.46         19.40GVEJ066G96
         K23J00E mC2023 05 08.47530615 48 41.771+43 13 36.12         19.87GVEJ066I52
         K23J00E mC2023 05 08.47548615 48 41.634+43 13 32.09         19.46GVEJ066I52
         K23J00E mC2023 05 08.47565715 48 41.522+43 13 28.31         19.87GVEJ066I52
         K23J00E mC2023 05 08.47582915 48 41.468+43 13 24.13         19.32GVEJ066I52
         K23J00E KC2023 05 08.84686015 45 55.218+40 56 06.70         18.85GVEJ066K80
         K23J00E KC2023 05 08.86088 15 45 48.00 +40 51 13.7          18.9 GXEJ066G02
         K23J00E KC2023 05 08.86541 15 45 45.58 +40 49 34.9          18.8 GXEJ066G02
         K23J00E KC2023 05 08.86993 15 45 43.14 +40 47 56.8          18.9 GXEJ066G02
         K23J00E KC2023 05 08.91991415 45 16.247+40 29 34.00         19.31GVEJ066K80
         K23J00E KC2023 05 08.95954 15 44 56.21 +40 15 03.4          18.9 GXEJ066L38
         K23J00E KC2023 05 08.96668 15 44 52.34 +40 12 26.3          18.6 GXEJ066L38
    
    Observer details:
    958 Observatoire de Dax.  Observers P. Dupouy, J. B. de Vanssay.  Measurer P.
        Dupouy.  0.43-m f/2.7 Reflector + CCD.
    C95 SATINO Remote Observatory, Haute Provence.  Observer J. Jahn.  0.60-m
        f/3.2 Newtonian reflector + CCD.
    G02 KYSUCE Observatory, Kysucke Nove Mesto.  Observer M. Urbanik.  0.40-m
        f/5.5 Corrected Dall-Kirkham + CCD.
    G96 Mt. Lemmon Survey.  Observer R. A. Kowalski.  Measurers E. J. Christensen,
        D. Fay, J. B. Fazekas, D. C. Fuls, A. R. Gibbs, A. D. Grauer, H. Groeller,
        J. K. Hogan, R. A. Kowalski, S. M. Larson, G. J. Leonard, D. Rankin, R. L.
        Seaman, A. Serrano, F. C. Shelly, K. W. Wierzchos.  1.5-m reflector + 10K
        CCD.
    H01 Magdalena Ridge Observatory, Socorro.  Observers W. H. Ryan, E. V. Ryan.
        Measurer W. H. Ryan.  2.4-m f/8.9 Ritchey-Chretien + CCD.
    I52 Steward Observatory, Mt. Lemmon Station.  Observer J. K. Hogan.  Measurers
        E. J. Christensen, D. Fay, J. B. Fazekas, D. C. Fuls, A. R. Gibbs, A. D.
        Grauer, H. Groeller, J. K. Hogan, R. A. Kowalski, S. M. Larson, G. J.
        Leonard, D. Rankin, R. L. Seaman, A. Serrano, F. C. Shelly, K. W.
        Wierzchos.  1.0-m prime focus + CCD.
    I93 St Pardon de Conques.  Observer F. Losse.  0.40-m f/3.7 reflector + CCD.
    J95 Great Shefford.  Observer P. Birtwhistle.  0.41-m f/6.3 Schmidt-Cassegrain
        + CCD.
    K80 Platanus Observatory, Lusowko.  Observer T. Kluwak.  0.28-m f/2.2 Rowe-
        Ackermann Schmidt + CCD.
    L01 Visnjan Observatory, Tican.  Observer K. Korlevic.  1.0-m f/2.9 reflector
        + CCD.
    L38 Gartensternwarte Schafsweide, Sehlde.  Observer A. Opitz.  0.35-m f/4.6
        Newton + CCD.
    Z80 Northolt Branch Observatory.  Observer G. Wells.  Measurers G. Wells, D.
        Bamberger.  0.25-m f/8.0 Ritchey-Chretien + CCD.
    
    Orbital elements:
    2023 JE                                                  Earth MOID = 0.0451 AU
    Epoch 2023 Feb. 25.0 TT = JDT 2460000.5                 Veres                   
    M 352.70391              (2000.0)            P               Q                  
    n   0.76602422     Peri.   88.90615     -0.85429891     -0.50122526             
    a   1.1829718      Node    60.99897     +0.39192284     -0.79510298             
    e   0.2728456      Incl.    9.05488     +0.34142330     -0.34144471             
    P   1.29           H   23.93          G   0.15           U   7                  
    Residuals in seconds of arc
    230507 G96  0.2-  0.1+    230507 L01  0.2-  0.2+    230508 G96  0.1-  0.4-
    230507 G96  0.0   0.4+    230507 I93  0.3-  0.0     230508 G96  0.2-  0.0
    230507 G96 (0.4-  1.0-)   230507 I93  0.1+  0.1+    230508 G96  0.0   0.2+
    230507 G96  0.1-  0.4-    230507 I93  0.4-  0.0     230508 G96  0.2-  0.3-
    230507 H01  0.0   0.1-    230507 J95  0.1+  0.2+    230508 I52  0.3+  0.1+
    230507 H01  0.1-  0.2-    230507 J95  0.2+  0.0     230508 I52  0.1-  0.2+
    230507 H01  0.2-  0.2-    230507 J95  0.5+  0.3-    230508 I52  0.2-  0.2+
    230507 H01  0.0   0.1-    230507 958  0.6-  0.5+    230508 I52  0.3+  0.1-
    230507 I52 (0.5+  0.5-)   230507 J95  0.3-  0.1+    230508 K80  0.0   0.3-
    230507 I52  0.1-  0.2+    230507 958  0.4+  0.9-    230508 G02  0.0   0.3+
    230507 I52  0.1+  0.2-    230507 958  0.5-  0.4+    230508 G02  0.1+  0.0
    230507 I52  0.4+  0.3+    230507 Z80  0.2-  0.3-    230508 G02  0.1-  0.2+
    230507 L01  0.4+  0.3-    230507 Z80  0.4+  0.2+    230508 K80  0.0   0.0
    230507 L01  0.7+  0.2+    230508 C95  0.3-  0.0     230508 L38  0.5+  0.7+
    230507 L01  0.0   0.0     230508 C95  0.1-  0.4-    230508 L38  0.1+  0.5+
    230507 L01  0.1-  0.1+    230508 C95  0.2-  0.9+
    
    Ephemeris:
    2023 JE                  a,e,i = 1.18, 0.27, 9                   q = 0.8602
    Date    TT    R. A. (2000) Decl.     Delta      r    Elong.  Phase     V
    2023 04 08    01 50 53.4 +58 17 40   0.1555  0.9138    52.2   120.1    24.5
    ...
    2023 04 23    00 36 38.9 +73 10 36   0.08874 0.9669    62.1   113.2    23.0
    ...
    2023 05 01    18 50 52.8 +77 22 28   0.05895 0.9995    80.8    95.9    21.2
    ...
    2023 05 07    16 03 41.5 +52 03 12   0.04601 1.0252   109.7    67.9    19.7
    2023 05 08    15 53 11.3 +46 07 14   0.04535 1.0296   115.8    62.0    19.5
    2023 05 09    15 44 34.8 +40 01 09   0.04523 1.0339   122.0    55.9    19.3
    ...
    2023 05 15    15 14 26.3 +07 28 46   0.05520 1.0605   153.7    25.0    18.9
    ...
    2023 05 23    14 58 04.1 -15 16 50   0.08660 1.0963   165.1    13.7    19.6
    ...
    2023 06 07    14 51 56.6 -29 35 05   0.1663  1.1630   151.0    25.0    21.5
    
    M. P. C. Staff               (C) Copyright 2023 MPC           M.P.E.C. 2023-J66
    


    Read MPEC 2023-J65 Read MPEC 2023-J67


    MPEC number:

    Enter an MPEC number in one of the following forms:

    • 1997-B01 (the full form)
    • J97B01 (the packed version of the full form)
    • B01 (the abbreviated form)